Keps
Threads by month
- ----- 2025 -----
- February
- January
- ----- 2024 -----
- December
- November
- October
- September
- August
- July
- June
- May
- April
- March
- February
- January
- ----- 2023 -----
- December
- November
- October
- September
- August
- July
- June
- May
- April
- March
- February
- January
- ----- 2022 -----
- December
- November
- October
- September
- August
- July
- June
- May
- April
- March
- February
- January
- ----- 2021 -----
- December
- November
- October
- September
- August
- July
- June
- May
- April
- March
- February
- January
- ----- 2020 -----
- December
- November
- October
- September
- August
- July
- June
- May
- April
- March
- February
- January
- ----- 2019 -----
- December
- November
- October
- September
- August
- July
- June
- May
- April
- March
- February
- January
- ----- 2018 -----
- December
- November
- October
- September
- August
- July
- June
- May
- April
- March
- February
- January
- ----- 2017 -----
- December
- November
- October
- September
- August
- July
- June
- May
- April
- March
- February
- January
- ----- 2016 -----
- December
- November
- October
- September
- August
- July
- June
- May
- April
- March
- February
- January
- ----- 2015 -----
- December
- November
- October
- September
- August
- July
- June
- May
- April
- March
- February
- January
- ----- 2014 -----
- December
- November
- October
- September
- August
- July
- June
- May
- April
- March
- February
- January
- ----- 2013 -----
- December
- November
- October
- September
- August
- July
- June
- May
- April
- March
- February
- January
- ----- 2012 -----
- December
- November
- October
- September
- August
- July
- June
- May
- April
- March
- February
- January
- ----- 2011 -----
- December
- November
- October
- September
- August
- July
- June
- May
- April
- March
- February
- January
- ----- 2010 -----
- December
- November
- October
- September
- August
- July
- June
- May
- April
- March
- February
- January
- ----- 2009 -----
- December
- November
- October
- September
- August
- July
- June
- May
- April
- March
- February
- January
- ----- 2008 -----
- December
- November
- October
- September
- August
- July
- June
- May
- April
- March
- February
- January
- ----- 2007 -----
- December
- November
- October
- September
- August
- July
- June
- May
- April
- March
- February
- January
- ----- 2006 -----
- December
- November
- October
- September
March 2018
- 1 participants
- 5 discussions
SB KEPS @ AMSAT $ORB18088.N
2Line Orbital Elements 18088.AMSAT
HR AMSAT ORBITAL ELEMENTS FOR AMATEUR SATELLITES IN NASA FORMAT
FROM WA5QGD FORT WORTH,TX March 29, 2018
BID: ORB18088.N
DECODE 2-LINE ELSETS WITH THE FOLLOWING KEY:
1 AAAAAU 00 0 0 BBBBB.BBBBBBBB .CCCCCCCC 00000-0 00000-0 0 DDDZ
2 AAAAA EEE.EEEE FFF.FFFF GGGGGGG HHH.HHHH III.IIII JJ.JJJJJJJJKKKKKZ
KEY: A-CATALOGNUM B-EPOCHTIME C-DECAY D-ELSETNUM E-INCLINATION F-RAAN
G-ECCENTRICITY H-ARGPERIGEE I-MNANOM J-MNMOTION K-ORBITNUM Z-CHECKSUM
TO ALL RADIO AMATEURS BT
AO-07
1 07530U 74089B 18088.84364528 -.00000037 00000-0 44174-4 0 9993
2 07530 101.6782 57.3824 0012352 127.5484 262.0898 12.53631917984650
UO-11
1 14781U 84021B 18088.58546096 .00000076 00000-0 15593-4 0 9994
2 14781 097.6593 128.1543 0008163 354.7667 005.3461 14.82990806811648
LO-19
1 20442U 90005G 18088.39828826 .00000001 00000-0 16571-4 0 9992
2 20442 098.6040 027.4084 0012388 030.7325 329.4582 14.32890609472400
HUBBLE
1 20580U 90037B 18088.89534576 .00000520 00000-0 20942-4 0 9994
2 20580 28.4693 279.2606 0002740 10.2875 133.4276 15.09006874333484
MET-2/21
1 22782U 93055A 18088.33976167 -.00000027 00000-0 -37766-4 0 9994
2 22782 082.5503 157.3037 0021978 354.6042 075.5680 13.83808592240861
AO-27
1 22825U 93061C 18088.87665475 .00000003 00000-0 19204-4 0 9994
2 22825 98.8548 63.5893 0007754 212.0428 148.0283 14.30025556278238
IO-26
1 22826U 93061D 18088.42216321 -.00000003 00000-0 16441-4 0 9999
2 22826 098.8489 063.1746 0008424 202.8248 157.2561 14.30356593278103
FO-29
1 24278U 96046B 18088.51670689 -.00000025 00000-0 12672-4 0 9995
2 24278 098.5248 298.2168 0349704 317.7706 039.6977 13.53082623067215
NOAA-15
1 25338U 98030A 18088.54482639 .00000035 00000-0 33371-4 0 9996
2 25338 098.7747 104.9043 0011657 098.4806 261.7695 14.25843795033416
GO-32
1 25397U 98043D 18088.40196879 -.00000019 00000-0 10924-4 0 9990
2 25397 98.6431 30.1908 0000354 192.9694 167.1476 14.23642336 24374
ISS
1 25544U 98067A 18089.06258350 .00004980 00000-0 82292-4 0 9993
2 25544 51.6414 53.1671 0001444 274.0205 180.0726 15.54166964106210
NO-44
1 26931U 01043C 18088.51047902 -.00000019 00000-0 24335-4 0 9994
2 26931 67.0505 74.9982 0006764 282.9291 77.1054 14.30498730861155
SO-50
1 27607U 02058C 18088.09654612 .00000036 00000-0 25866-4 0 9995
2 27607 064.5562 334.8416 0055942 347.0028 012.9629 14.75433596821018
CO-55
1 27844U 03031E 18088.45399407 .00000075 00000-0 53562-4 0 9995
2 27844 098.6891 098.2788 0008776 238.6402 121.3918 14.22102492764822
CO-57
1 27848U 03031J 18088.46154097 .00000050 00000-0 42820-4 0 9992
2 27848 098.6979 098.6570 0008585 250.0303 109.9950 14.21707819764700
RS-22
1 27939U 03042A 18088.85172317 .00000094 00000-0 25275-4 0 9996
2 27939 97.9768 230.0946 0013835 45.0650 111.6706 14.66669897775184
NOAA-18
1 28654U 05018A 18088.55092581 .00000004 00000-0 27699-4 0 9990
2 28654 099.1548 122.3466 0014042 355.4380 004.6661 14.12370844662445
CO-58
1 28895U 05043F 18088.42185056 .00000144 00000-0 36536-4 0 9996
2 28895 97.8968 243.1603 0015878 325.4615 34.5555 14.63523960662207
Falconsat-3
1 30776U 07006E 18088.36820221 .00002801 00000-0 84207-4 0 9991
2 30776 35.4359 54.7442 0002417 6.4489 353.6268 15.34154046612055
CO-65
1 32785U 08021C 18088.50161326 .00000255 00000-0 33383-4 0 9991
2 32785 097.5514 104.4692 0011773 306.9984 053.0155 14.88085405537256
AAUSAT2
1 32788U 08021F 18088.53731309 .00000372 00000-0 39738-4 0 9991
2 32788 97.5296 118.3325 0010400 252.7856 107.2226 14.94266467538286
DO-64
1 32789U 08021G 18088.57864837 .00001672 00000-0 11923-3 0 9998
2 32789 097.5210 145.3782 0012084 202.9583 157.1105 15.05859086539700
CO-66
1 32791U 08021J 18088.51841994 .00000363 00000-0 42598-4 0 9993
2 32791 097.5421 109.6587 0011831 285.5667 074.4245 14.90500566537569
RS-30
1 32953U 08025A 18088.84267667 .00000015 00000-0 33076-4 0 9997
2 32953 82.5019 62.0170 0019868 26.1936 334.0144 12.43082528446912
PRISM
1 33493U 09002B 18088.71721533 .00000345 00000-0 36249-4 0 9997
2 33493 98.1374 347.7294 0014175 216.2356 143.7913 14.96123776498460
NOAA-19
1 33591U 09005A 18088.57922266 .00000108 00000-0 83872-4 0 9990
2 33591 099.1346 065.0585 0013781 186.3508 173.7491 14.12265299470672
TISAT-1
1 36799U 10035E 18088.84712136 .00000579 00000-0 64910-4 0 9995
2 36799 98.0931 223.0237 0013726 108.0294 252.2420 14.90736488418334
JUGNU
1 37839U 11058B 18088.46173703 .00000320 00000-0 29042-4 0 9997
2 37839 19.9603 160.6867 0019169 87.7846 21.6648 14.12614005334089
SRMSAT
1 37841U 11058D 18088.57683338 .00000317 00000-0 29122-4 0 9997
2 37841 019.9711 207.5508 0011901 336.8770 123.3514 14.10602195333531
AO-71
1 37854U 11061E 18088.52047413 .00001418 00000-0 81915-4 0 9999
2 37854 101.7118 112.6757 0164013 309.7515 048.9343 15.05245320349398
HRBE
1 37855U 11061F 18088.85918900 .00001777 00000-0 98704-4 0 9996
2 37855 101.7251 110.7984 0177034 317.0174 41.7319 15.04223231349725
ALMASAT-1
1 38078U 12006B 18088.79806265 .00016236 38594-5 15093-3 0 9996
2 38078 69.4331 75.6885 0259807 226.3769 199.5327 15.36228033328449
HORYU-2
1 38340U 12025D 18088.53047410 .00000239 00000-0 43224-4 0 9990
2 38340 098.3721 107.4947 0012914 103.4980 256.7668 14.75519897304951
RS-40
1 38735U 12041C 18088.56314580 .00000021 00000-0 80868-4 0 9998
2 38735 082.4759 146.2727 0018138 126.1277 234.1484 12.42576650257119
BEESAT-3
1 39134U 13015E 18088.80368673 .00001381 00000-0 75061-4 0 9992
2 39134 64.8649 23.6576 0020981 219.9280 140.0305 15.18945095272842
BEESAT-2
1 39136U 13015G 18088.83629327 .00001136 00000-0 68659-4 0 9996
2 39136 64.8707 38.4599 0026809 245.5839 114.2488 15.15978328272564
ZACUBE-1
1 39417U 13066B 18088.51806187 .00000270 00000-0 40410-4 0 9993
2 39417 097.5959 121.3757 0060418 057.0966 303.6040 14.80898948235003
TRITON-1
1 39427U 13066M 18088.53302617 .00000191 00000-0 38363-4 0 9991
2 39427 097.6397 089.7495 0114795 153.9098 206.7956 14.67627971232701
GOMX-1
1 39430U 13066Q 18088.40979402 .00000174 00000-0 40852-4 0 9990
2 39430 97.6910 71.0645 0150570 222.0009 136.9569 14.59044560231518
LO-74
1 39440U 13066AA 18088.53436776 .00000270 00000-0 44430-4 0 9990
2 39440 97.6067 108.4829 0082128 94.2177 266.8425 14.75633296234176
AO-73
1 39444U 13066AE 18088.55558266 .00000324 00000-0 46291-4 0 9992
2 39444 097.5969 122.8355 0059446 052.7826 307.8792 14.81667777233272
SPROUT
1 39770U 14029E 18088.77618583 .00000654 00000-0 79641-4 0 9998
2 39770 97.8717 190.5126 0010855 107.7414 252.4993 14.86739383208561
DUCHIFAT-1
1 40021U 14033M 18088.83004866 .00000428 00000-0 49974-4 0 9999
2 40021 97.9173 7.4058 0014524 80.7436 279.5423 14.90238702205132
NANOSATCBR1
1 40024U 14033Q 18088.42902398 .00000380 00000-0 45840-4 0 9999
2 40024 97.9113 5.4024 0013795 83.8915 276.3874 14.89511031205003
EO-79
1 40025U 14033R 18088.49862349 .00000325 00000-0 40865-4 0 9999
2 40025 97.9077 4.0533 0013995 87.2893 272.9926 14.88664916204939
DTUSAT-2
1 40030U 14033W 18088.30825249 .00000293 00000-0 37781-4 0 9990
2 40030 097.9029 002.6593 0013414 083.2985 276.9758 14.88276364204344
EO-80
1 40032U 14033Y 18088.56451033 .00000303 00000-0 38893-4 0 9993
2 40032 097.9035 002.9184 0013380 083.0600 277.2138 14.88213011204364
ANTELSAT
1 40034U 14033AA 18088.23228048 .00000258 00000-0 45734-4 0 9998
2 40034 97.8230 327.7392 0060340 95.4104 265.3992 14.73883975202916
VELOX-1
1 40057U 14034E 18088.79731786 .00000341 00000-0 55541-4 0 9993
2 40057 98.1940 198.5143 0010217 215.6437 144.4094 14.77374041201927
